Flag for Russia Weather past 2 weeks in Surgut, Russia

Now
43 °F

Clear.


Feels Like: 39 °F
Forecast: 41 / 53 °F
Wind: 6 mph from Southwest

Location: Surgut Airport

Current Time: Sep 4, 2015 at 3:26:30 AM

Latest Report: Sep 4, 2015 at 2:30 AM


Visibility: 4 mi

Pressure: 29.80 "Hg

Humidity: 93%

Dew point: 41 °F

Location of SurgutLocation

Historic Weather in Surgut — Graph

°F

Surgut temperature yesterday

Maximum temperature yesterday: 55 °F (at 11:30 AM)
Minimum temperature yesterday: 41 °F (at 10:00 PM)
Average temperature yesterday: 49 °F

Past Weeks' High & Low Weather Summary

 TemperatureHumidityPressure
High61 °F (Aug 28, 3:30 PM)100% (Aug 20, 2:00 AM)29.92 "Hg (Aug 20, 2:00 AM)
Low34 °F (Aug 26, 2:00 AM)42% (Aug 28, 3:30 PM)29.45 "Hg (Aug 24, 2:00 AM)
Average50 °F83%29.67 "Hg
* Reported Aug 20 2:00 AM — Sep 4 2:30 AM, Surgut, Weather by CustomWeather, © 2015

Note: Actual official high and low records may vary slightly from our data, if they occured in-between our weather recording intervals... More about our weather records

Advertising

Surgut weather history for previous 24 hours

 ConditionsComfort  
Time TempWeatherWind HumidityBarometerVisibility
2:30 AM
Fri, Sep 4
43 °FClear.6 mph93%29.80 "Hg4 mi
1:30 AM45 °FClear.6 mph87%29.77 "Hg4 mi
1:00 AM45 °FClear.6 mph87%29.77 "Hg4 mi
12:30 AM45 °FClear.3 mph87%29.77 "Hg4 mi
12:00 AM45 °FClear.6 mph87%29.77 "Hg4 mi
11:30 PM
Thu, Sep 3
41 °FClear.3 mph93%29.77 "Hg4 mi
11:00 PM43 °FClear.1 mph87%29.77 "Hg4 mi
10:30 PM41 °FClear.1 mph87%29.77 "Hg4 mi
10:00 PM41 °FClear.No wind87%29.77 "Hg4 mi
9:30 PM45 °FClear.3 mph81%29.77 "Hg4 mi
9:00 PM45 °FClear.3 mph81%29.77 "Hg4 mi
8:30 PM45 °FClear.3 mph81%29.77 "Hg4 mi
8:00 PM45 °FClear.1 mph81%29.77 "Hg4 mi
7:30 PM46 °FClear.1 mph82%29.77 "Hg4 mi
7:00 PM50 °FClear.3 mph71%29.77 "Hg4 mi
6:30 PM52 °FClear.6 mph58%29.77 "Hg4 mi
6:00 PM54 °FClear.8 mph58%29.74 "Hg4 mi
5:30 PM55 °FClear.10 mph55%29.74 "Hg4 mi
5:00 PM54 °FClear.10 mph58%29.74 "Hg4 mi
4:30 PM55 °FClear.10 mph55%29.71 "Hg4 mi
4:00 PM55 °FClear.10 mph55%29.71 "Hg4 mi
3:30 PM55 °FClear.10 mph59%29.71 "Hg4 mi
3:00 PM55 °FBroken clouds.8 mph59%29.71 "Hg4 mi
2:30 PM54 °FPartly sunny.8 mph63%29.71 "Hg4 mi
2:00 PM55 °FPartly sunny.8 mph59%29.71 "Hg4 mi
1:30 PM55 °FPartly sunny.8 mph59%29.71 "Hg4 mi
1:00 PM55 °FPartly sunny.10 mph55%29.71 "Hg4 mi
12:30 PM55 °FPartly sunny.8 mph59%29.71 "Hg4 mi
12:00 PM54 °FPartly sunny.8 mph63%29.71 "Hg4 mi
11:30 AM55 °FPartly sunny.6 mph59%29.71 "Hg4 mi
11:00 AM54 °FScattered clouds.6 mph63%29.71 "Hg4 mi
10:30 AM54 °FBroken clouds.6 mph72%29.71 "Hg4 mi
10:00 AM52 °FBroken clouds.6 mph77%29.71 "Hg4 mi
9:30 AM52 °FClear.8 mph72%29.71 "Hg4 mi
9:00 AM50 °FClear.6 mph76%29.71 "Hg4 mi
8:30 AM50 °FClear.8 mph76%29.71 "Hg4 mi
8:00 AM48 °FClear.8 mph82%29.71 "Hg4 mi
7:30 AM46 °FClear.6 mph82%29.71 "Hg4 mi
7:00 AM46 °FClear.6 mph82%29.71 "Hg4 mi
6:30 AM46 °FClear.3 mph82%29.71 "Hg4 mi
6:00 AM46 °FClear.6 mph82%29.71 "Hg4 mi
5:30 AM45 °FClear.3 mph87%29.71 "Hg4 mi
5:00 AM45 °FClear.3 mph87%29.71 "Hg4 mi
4:30 AM45 °FClear.6 mph87%29.71 "Hg4 mi
4:00 AM45 °FClear.3 mph87%29.71 "Hg4 mi
Weather by CustomWeather, © 2015

See weather overviewHow to use our weather pages